This demonstration page uses our WeatherBlox Daily Observations layout. Learn more.

Left ArrowRight Arrow

47.50024, -111.30081

Hourly Observations for January 22, 2022

Temp ( °F °C ) Dew Point ( °F °C ) Humidity (%) Winds ( mph kmh ) Pressure ( in mb ) Visibility ( mi km ) Precip ( " mm )
12:53 am 00:53 Clear 30 -1.1 21 -6.1 69 69 SSW 16 26 30.29 1026 10 16 0.00 0.00
1:53 am 01:53 Clear 32 0 22 -5.6 66 66 SW 16 26 30.27 1025 10 16 0.00 0.00
2:53 am 02:53 Cloudy 34 1.1 22 -5.6 61 61 SW 18 30 30.28 1025 10 16 0.00 0.00
3:53 am 03:53 Cloudy 36 2.2 23 -5 59 59 SW 17 28 30.27 1025 10 16 0.00 0.00
4:53 am 04:53 Cloudy 37 2.8 23 -5 57 57 SW 15 24 30.28 1026 10 16 0.00 0.00
5:53 am 05:53 Cloudy 37 2.8 23 -5 57 57 SW 16 26 30.30 1026 10 16 0.00 0.00
6:53 am 06:53 Cloudy 37 2.8 23 -5 57 57 SW 20 31 30.29 1026 10 16 0.00 0.00
7:53 am 07:53 Cloudy 37 2.8 23 -5 57 57 SW 18 30 30.32 1027 10 16 0.00 0.00
8:53 am 08:53 Cloudy 37 2.8 24 -4.4 59 59 SW 18 30 30.33 1027 10 16 0.00 0.00
9:53 am 09:53 Cloudy 39 3.9 24 -4.4 55 55 SW 18 30 30.34 1027 10 16 0.00 0.00
10:53 am 10:53 Cloudy 41 5 24 -4.4 51 51 SW 22 35 30.34 1027 10 16 0.00 0.00
11:53 am 11:53 Cloudy 43 6.1 24 -4.4 47 47 SW 24 39 30.32 1027 10 16 0.00 0.00
12:53 pm 12:53 Cloudy 44 6.7 24 -4.4 45 45 SW 25 41 30.29 1026 10 16 0.00 0.00
1:53 pm 13:53 Partly Cloudy 46 7.8 23 -5 40 40 SW 28 44 30.25 1025 10 16 0.00 0.00
2:53 pm 14:53 Sunny 46 7.8 23 -5 40 40 SW 24 39 30.26 1025 10 16 0.00 0.00
3:53 pm 15:53 Sunny 45 7.2 24 -4.4 44 44 SW 21 33 30.27 1025 10 16 0.00 0.00
4:53 pm 16:53 Sunny 42 5.6 23 -5 47 47 SW 21 33 30.27 1025 10 16 0.00 0.00
5:53 pm 17:53 Clear 38 3.3 23 -5 55 55 SW 16 26 30.28 1025 10 16 0.00 0.00
6:53 pm 18:53 Clear 40 4.4 23 -5 51 51 SW 22 35 30.27 1025 10 16 0.00 0.00
7:53 pm 19:53 Clear 39 3.9 23 -5 53 53 SW 21 33 30.28 1026 10 16 0.00 0.00
8:53 pm 20:53 Clear 37 2.8 23 -5 57 57 SSW 18 30 30.28 1025 10 16 0.00 0.00
9:53 pm 21:53 Clear 36 2.2 23 -5 59 59 SSW 17 28 30.26 1025 10 16 0.00 0.00
10:53 pm 22:53 Clear 37 2.8 23 -5 57 57 SSW 20 31 30.25 1024 10 16 0.00 0.00
11:53 pm 23:53 Clear 37 2.8 22 -5.6 54 54 SSW 18 30 30.25 1025 10 16 0.00 0.00

Powered by AerisWeather